NKS1006 KDTW-KDFW

Flight info

Callsign NKS1006
Flight time N/A
Altitude 32000
Route BARII3 SINKR PXV J131 LIT MEEOW FEWWW SEEVR4
Aircraft A321/M-SDE3FGHIRWY/LB1

Departure

Time N/A
Airport Detroit Metropolitan Wayne County Airport (KDTW)

Arrival

Time 2026-05-05 16:16
Airport Dallas Fort Worth International Airport (KDFW)
Time Latitude Longitude Altitude Speed Heading
2026-05-05 14:00 39.71950 -85.40373 31881 ft 387 kts 233°
2026-05-05 14:01 39.68244 -85.45437 31845 ft 387 kts 233°
2026-05-05 14:01 39.64535 -85.50506 31846 ft 387 kts 233°
2026-05-05 14:02 39.60823 -85.55569 31851 ft 387 kts 233°
2026-05-05 14:02 39.57111 -85.60627 31858 ft 387 kts 232°
2026-05-05 14:03 39.53391 -85.65679 31865 ft 388 kts 232°
2026-05-05 14:03 39.49666 -85.70734 31842 ft 388 kts 232°
2026-05-05 14:04 39.45920 -85.75808 31837 ft 392 kts 232°
2026-05-05 14:04 39.42128 -85.80924 31873 ft 397 kts 232°
2026-05-05 14:05 39.40209 -85.83519 32039 ft 400 kts 232°
2026-05-05 14:05 39.38289 -85.86114 32326 ft 399 kts 233°
2026-05-05 14:05 39.36374 -85.88700 32706 ft 396 kts 233°
2026-05-05 14:05 39.34476 -85.91254 33128 ft 392 kts 234°
2026-05-05 14:06 39.32592 -85.93785 33555 ft 388 kts 234°
2026-05-05 14:06 39.30729 -85.96287 33835 ft 386 kts 234°
2026-05-05 14:06 39.27031 -86.01245 33870 ft 381 kts 236°
2026-05-05 14:07 39.23365 -86.06150 33877 ft 379 kts 236°
2026-05-05 14:07 39.19717 -86.11047 33875 ft 378 kts 236°
2026-05-05 14:08 39.16071 -86.15936 33874 ft 379 kts 236°
2026-05-05 14:08 39.12415 -86.20816 33868 ft 378 kts 235°
2026-05-05 14:09 39.08762 -86.25683 33883 ft 378 kts 235°
2026-05-05 14:09 39.05111 -86.30535 33853 ft 377 kts 236°
2026-05-05 14:10 39.01483 -86.35359 33866 ft 378 kts 236°
2026-05-05 14:10 38.97807 -86.40237 33877 ft 378 kts 236°
2026-05-05 14:11 38.94140 -86.45077 33895 ft 379 kts 236°
2026-05-05 14:11 38.90480 -86.49905 33896 ft 378 kts 236°
2026-05-05 14:12 38.86844 -86.54706 33876 ft 378 kts 236°
2026-05-05 14:12 38.83171 -86.59549 33852 ft 378 kts 236°
2026-05-05 14:13 38.79500 -86.64371 33864 ft 378 kts 237°
2026-05-05 14:13 38.75823 -86.69199 33870 ft 379 kts 236°
2026-05-05 14:14 38.72142 -86.74024 33870 ft 379 kts 236°
2026-05-05 14:14 38.68453 -86.78855 33879 ft 379 kts 236°
2026-05-05 14:15 38.64766 -86.83680 33890 ft 379 kts 236°
2026-05-05 14:15 38.61067 -86.88507 33882 ft 380 kts 237°
2026-05-05 14:16 38.57366 -86.93327 33878 ft 380 kts 237°
2026-05-05 14:16 38.53659 -86.98154 33862 ft 381 kts 236°
2026-05-05 14:17 38.49942 -87.02978 33877 ft 381 kts 236°
2026-05-05 14:17 38.46227 -87.07793 33887 ft 381 kts 236°
2026-05-05 14:18 38.42534 -87.12574 33890 ft 381 kts 236°
2026-05-05 14:18 38.38802 -87.17390 33875 ft 382 kts 236°
2026-05-05 14:19 38.35067 -87.22225 33882 ft 382 kts 236°
2026-05-05 14:19 38.31334 -87.27042 33892 ft 382 kts 236°
2026-05-05 14:20 38.27585 -87.31837 33864 ft 381 kts 242°
2026-05-05 14:20 38.25950 -87.34417 33700 ft 373 kts 241°
2026-05-05 14:20 38.24263 -87.36916 33922 ft 377 kts 237°
2026-05-05 14:21 38.20412 -87.41556 33879 ft 384 kts 233°
2026-05-05 14:21 38.16485 -87.46140 33877 ft 382 kts 234°
2026-05-05 14:22 38.12690 -87.50872 33862 ft 382 kts 236°
2026-05-05 14:22 38.08959 -87.55680 33867 ft 383 kts 236°
2026-05-05 14:23 38.05215 -87.60494 33871 ft 384 kts 236°
2026-05-05 14:23 38.01472 -87.65266 33876 ft 384 kts 236°
2026-05-05 14:24 37.97695 -87.70064 33876 ft 383 kts 236°
2026-05-05 14:24 37.95842 -87.72410 33850 ft 372 kts 235°
2026-05-05 14:24 37.94028 -87.74706 33893 ft 368 kts 235°
2026-05-05 14:25 37.90529 -87.79354 33896 ft 366 kts 238°
2026-05-05 14:25 37.87181 -87.84319 33897 ft 377 kts 239°
2026-05-05 14:26 37.83760 -87.89426 33892 ft 382 kts 238°
2026-05-05 14:26 37.80265 -87.94520 33889 ft 384 kts 238°
2026-05-05 14:27 37.76743 -87.99589 33889 ft 384 kts 238°
2026-05-05 14:27 37.73221 -88.04657 33889 ft 384 kts 238°
2026-05-05 14:28 37.69706 -88.09721 33843 ft 384 kts 237°
2026-05-05 14:28 37.66175 -88.14797 33847 ft 385 kts 237°
2026-05-05 14:29 37.62646 -88.19867 33871 ft 385 kts 237°
2026-05-05 14:29 37.59108 -88.24948 33878 ft 385 kts 237°
2026-05-05 14:30 37.55565 -88.30025 33883 ft 386 kts 237°
2026-05-05 14:30 37.52016 -88.35098 33887 ft 386 kts 237°
2026-05-05 14:31 37.48465 -88.40170 33886 ft 386 kts 237°
2026-05-05 14:31 37.44914 -88.45234 33890 ft 385 kts 237°
2026-05-05 14:32 37.41391 -88.50253 33850 ft 385 kts 237°
2026-05-05 14:32 37.37830 -88.55312 33857 ft 387 kts 237°
2026-05-05 14:33 37.34257 -88.60370 33864 ft 387 kts 237°
2026-05-05 14:33 37.30677 -88.65441 33873 ft 388 kts 237°
2026-05-05 14:34 37.27097 -88.70510 33883 ft 388 kts 237°
2026-05-05 14:34 37.23506 -88.75581 33897 ft 389 kts 237°
2026-05-05 14:35 37.19918 -88.80648 33898 ft 389 kts 237°
2026-05-05 14:35 37.16326 -88.85716 33853 ft 389 kts 236°
2026-05-05 14:36 37.12702 -88.90818 33877 ft 396 kts 236°
2026-05-05 14:36 37.09018 -88.95983 33877 ft 399 kts 236°
2026-05-05 14:37 37.05318 -89.01168 33884 ft 399 kts 236°
2026-05-05 14:37 37.01608 -89.06349 33885 ft 400 kts 235°
2026-05-05 14:38 36.97891 -89.11535 33875 ft 401 kts 236°
2026-05-05 14:38 36.94166 -89.16737 33872 ft 402 kts 236°
2026-05-05 14:39 36.90455 -89.21900 33872 ft 404 kts 236°
2026-05-05 14:39 36.86666 -89.27170 33912 ft 406 kts 236°
2026-05-05 14:40 36.84804 -89.29760 34133 ft 406 kts 236°
2026-05-05 14:40 36.82917 -89.32380 34402 ft 405 kts 236°
2026-05-05 14:40 36.81039 -89.34983 34692 ft 403 kts 237°
2026-05-05 14:40 36.79167 -89.37571 34970 ft 401 kts 237°
2026-05-05 14:41 36.77301 -89.40151 35262 ft 399 kts 237°
2026-05-05 14:41 36.75450 -89.42714 35548 ft 397 kts 238°
2026-05-05 14:41 36.73610 -89.45262 35795 ft 395 kts 239°
2026-05-05 14:41 36.71779 -89.47795 35870 ft 394 kts 239°
2026-05-05 14:42 36.68109 -89.52851 35883 ft 393 kts 239°
2026-05-05 14:42 36.64443 -89.57899 35878 ft 392 kts 239°
2026-05-05 14:43 36.60782 -89.62936 35877 ft 392 kts 239°
2026-05-05 14:43 36.57118 -89.67975 35878 ft 392 kts 239°
2026-05-05 14:44 36.54062 -89.72148 35867 ft 392 kts 241°
2026-05-05 14:44 36.50375 -89.77169 35874 ft 393 kts 238°
2026-05-05 14:45 36.46698 -89.82201 35871 ft 394 kts 239°
2026-05-05 14:45 36.43012 -89.87240 35879 ft 394 kts 239°
2026-05-05 14:46 36.39323 -89.92278 35885 ft 395 kts 239°
2026-05-05 14:46 36.35618 -89.97308 35888 ft 395 kts 238°
2026-05-05 14:47 36.31912 -90.02331 35833 ft 395 kts 239°
2026-05-05 14:47 36.28201 -90.07358 35846 ft 396 kts 239°
2026-05-05 14:48 36.24516 -90.12425 35858 ft 394 kts 240°
2026-05-05 14:48 36.20975 -90.17593 35856 ft 393 kts 241°
2026-05-05 14:49 36.17481 -90.22760 35866 ft 394 kts 241°
2026-05-05 14:49 36.13931 -90.27941 35876 ft 395 kts 240°
2026-05-05 14:50 36.10358 -90.33108 35880 ft 395 kts 240°
2026-05-05 14:50 36.06782 -90.38274 35860 ft 395 kts 240°
2026-05-05 14:51 36.03205 -90.43423 35880 ft 394 kts 240°
2026-05-05 14:51 35.99647 -90.48547 35890 ft 393 kts 241°
2026-05-05 14:52 35.96095 -90.53660 35887 ft 391 kts 240°
2026-05-05 14:52 35.92551 -90.58753 35887 ft 392 kts 240°
2026-05-05 14:53 35.88991 -90.63858 35888 ft 392 kts 240°
2026-05-05 14:53 35.85429 -90.68953 35901 ft 393 kts 240°
2026-05-05 14:54 35.81859 -90.74050 35900 ft 393 kts 240°
2026-05-05 14:54 35.77845 -90.79801 35900 ft 392 kts 240°
2026-05-05 14:55 35.74883 -90.84031 35887 ft 392 kts 241°
2026-05-05 14:55 35.70707 -90.89969 35872 ft 394 kts 240°
2026-05-05 14:56 35.67719 -90.94204 35882 ft 395 kts 240°
2026-05-05 14:56 35.64116 -90.99312 35885 ft 396 kts 240°
2026-05-05 14:57 35.60510 -91.04428 35891 ft 396 kts 240°
2026-05-05 14:57 35.56899 -91.09542 35893 ft 396 kts 240°
2026-05-05 14:58 35.53281 -91.14652 35878 ft 397 kts 240°
2026-05-05 14:58 35.49666 -91.19749 35897 ft 395 kts 240°
2026-05-05 14:59 35.46058 -91.24834 35897 ft 394 kts 241°
2026-05-05 14:59 35.42462 -91.29898 35902 ft 393 kts 241°
2026-05-05 15:00 35.39475 -91.34092 35906 ft 393 kts 241°
2026-05-05 15:00 35.35259 -91.39987 35904 ft 393 kts 241°
2026-05-05 15:01 35.31672 -91.45014 35902 ft 392 kts 241°
2026-05-05 15:01 35.28079 -91.50048 35893 ft 392 kts 241°
2026-05-05 15:02 35.24485 -91.55075 35858 ft 392 kts 240°
2026-05-05 15:02 35.20892 -91.60086 35850 ft 392 kts 240°
2026-05-05 15:03 35.17289 -91.65099 35862 ft 392 kts 240°
2026-05-05 15:03 35.13691 -91.70108 35892 ft 392 kts 240°
2026-05-05 15:04 35.10084 -91.75113 35897 ft 393 kts 240°
2026-05-05 15:04 35.06470 -91.80117 35896 ft 393 kts 240°
2026-05-05 15:05 35.01057 -91.87604 35883 ft 392 kts 240°
2026-05-05 15:06 34.97445 -91.92596 35836 ft 392 kts 240°
2026-05-05 15:06 34.93840 -91.97573 35866 ft 391 kts 240°
2026-05-05 15:07 34.90263 -92.02497 35871 ft 390 kts 240°
2026-05-05 15:07 34.86641 -92.07473 35874 ft 390 kts 240°
2026-05-05 15:08 34.83062 -92.12381 35876 ft 390 kts 240°
2026-05-05 15:08 34.81377 -92.14915 35882 ft 379 kts 248°
2026-05-05 15:08 34.80121 -92.17674 35883 ft 367 kts 256°
2026-05-05 15:09 34.78137 -92.23373 35890 ft 366 kts 256°
2026-05-05 15:09 34.76142 -92.29074 35893 ft 366 kts 256°
2026-05-05 15:10 34.74129 -92.34759 35894 ft 365 kts 255°
2026-05-05 15:10 34.72121 -92.40417 35885 ft 364 kts 255°
2026-05-05 15:11 34.70121 -92.46069 35856 ft 364 kts 255°
2026-05-05 15:11 34.68119 -92.51718 35868 ft 364 kts 255°
2026-05-05 15:12 34.66114 -92.57364 35873 ft 364 kts 255°
2026-05-05 15:12 34.64102 -92.63009 35875 ft 364 kts 255°
2026-05-05 15:13 34.62085 -92.68649 35885 ft 364 kts 255°
2026-05-05 15:13 34.60077 -92.74283 35888 ft 363 kts 255°
2026-05-05 15:14 34.58068 -92.79909 35874 ft 363 kts 255°
2026-05-05 15:14 34.56058 -92.85517 35879 ft 363 kts 255°
2026-05-05 15:15 34.54040 -92.91122 35876 ft 362 kts 255°
2026-05-05 15:15 34.52018 -92.96723 35878 ft 362 kts 255°
2026-05-05 15:16 34.50006 -93.02313 35881 ft 362 kts 255°
2026-05-05 15:16 34.47992 -93.07901 35876 ft 362 kts 255°
2026-05-05 15:17 34.45974 -93.13478 35880 ft 361 kts 254°
2026-05-05 15:17 34.43954 -93.19047 35848 ft 361 kts 254°
2026-05-05 15:18 34.41930 -93.24621 35819 ft 361 kts 255°
2026-05-05 15:18 34.39906 -93.30191 35826 ft 362 kts 254°
2026-05-05 15:19 34.37874 -93.35768 35830 ft 362 kts 254°
2026-05-05 15:19 34.35842 -93.41343 35834 ft 362 kts 254°
2026-05-05 15:20 34.33803 -93.46914 35835 ft 362 kts 254°
2026-05-05 15:20 34.31757 -93.52486 35830 ft 362 kts 255°
2026-05-05 15:21 34.29875 -93.58097 35831 ft 359 kts 257°
2026-05-05 15:21 34.28108 -93.63745 35830 ft 359 kts 257°
2026-05-05 15:22 34.26324 -93.69383 35832 ft 359 kts 256°
2026-05-05 15:22 34.24510 -93.75016 35832 ft 359 kts 256°
2026-05-05 15:23 34.22682 -93.80634 35828 ft 359 kts 256°
2026-05-05 15:23 34.20849 -93.86250 35816 ft 359 kts 256°
2026-05-05 15:24 34.19025 -93.91855 35821 ft 358 kts 256°
2026-05-05 15:24 34.17298 -93.97490 35814 ft 357 kts 257°
2026-05-05 15:25 34.15616 -94.03096 35816 ft 357 kts 257°
2026-05-05 15:25 34.13905 -94.08727 35795 ft 357 kts 257°
2026-05-05 15:26 34.12171 -94.14357 35804 ft 358 kts 257°
2026-05-05 15:26 34.10432 -94.19986 35794 ft 358 kts 256°
2026-05-05 15:27 34.08692 -94.25613 35806 ft 358 kts 256°
2026-05-05 15:27 34.06959 -94.31237 35815 ft 358 kts 256°
2026-05-05 15:28 34.05223 -94.36860 35822 ft 358 kts 256°
2026-05-05 15:28 34.03479 -94.42484 35826 ft 358 kts 256°
2026-05-05 15:29 34.01724 -94.48100 35822 ft 358 kts 256°
2026-05-05 15:29 33.99971 -94.53713 35819 ft 358 kts 256°
2026-05-05 15:30 33.98224 -94.59322 35808 ft 357 kts 256°
2026-05-05 15:30 33.96481 -94.64926 35808 ft 357 kts 256°
2026-05-05 15:31 33.94736 -94.70526 35794 ft 357 kts 256°
2026-05-05 15:31 33.92984 -94.76119 35795 ft 357 kts 256°
2026-05-05 15:32 33.91220 -94.81704 35798 ft 357 kts 256°
2026-05-05 15:32 33.89458 -94.87288 35797 ft 357 kts 256°
2026-05-05 15:33 33.87706 -94.92834 35794 ft 357 kts 256°
2026-05-05 15:33 33.85944 -94.98417 35790 ft 356 kts 255°
2026-05-05 15:34 33.84174 -95.04024 35768 ft 356 kts 255°
2026-05-05 15:34 33.82402 -95.09596 35774 ft 357 kts 255°
2026-05-05 15:35 33.80638 -95.15130 35781 ft 357 kts 255°
2026-05-05 15:35 33.78855 -95.20735 35789 ft 357 kts 255°
2026-05-05 15:36 33.77086 -95.26269 35790 ft 357 kts 255°
2026-05-05 15:36 33.75306 -95.31833 35791 ft 357 kts 255°
2026-05-05 15:37 33.73521 -95.37396 35727 ft 357 kts 255°
2026-05-05 15:37 33.72621 -95.40198 34898 ft 363 kts 255°
2026-05-05 15:37 33.71706 -95.43049 34024 ft 370 kts 254°
2026-05-05 15:37 33.70771 -95.45947 33116 ft 375 kts 254°
2026-05-05 15:38 33.69822 -95.48882 32165 ft 380 kts 254°
2026-05-05 15:38 33.68859 -95.51866 31220 ft 385 kts 254°
2026-05-05 15:38 33.67886 -95.54869 30569 ft 385 kts 254°
2026-05-05 15:38 33.66917 -95.57843 30069 ft 381 kts 254°
2026-05-05 15:39 33.65955 -95.60792 29490 ft 378 kts 254°
2026-05-05 15:39 33.65000 -95.63722 28842 ft 375 kts 254°
2026-05-05 15:39 33.64370 -95.65650 28422 ft 373 kts 253°
2026-05-05 15:39 33.63411 -95.68580 27782 ft 371 kts 253°
2026-05-05 15:40 33.62173 -95.72378 26973 ft 367 kts 253°
2026-05-05 15:40 33.61559 -95.74264 26615 ft 365 kts 253°
2026-05-05 15:40 33.60629 -95.77118 26155 ft 359 kts 253°
2026-05-05 15:40 33.59738 -95.79845 25678 ft 354 kts 253°
2026-05-05 15:41 33.58842 -95.82583 25143 ft 352 kts 253°
2026-05-05 15:41 33.57952 -95.85306 24612 ft 349 kts 253°
2026-05-05 15:41 33.57069 -95.88012 24087 ft 348 kts 252°
2026-05-05 15:41 33.56188 -95.90706 23576 ft 346 kts 252°
2026-05-05 15:42 33.55307 -95.93388 23033 ft 345 kts 252°
2026-05-05 15:42 33.54431 -95.96053 22476 ft 343 kts 252°
2026-05-05 15:42 33.53562 -95.98698 21980 ft 339 kts 253°
2026-05-05 15:42 33.52701 -96.01312 21525 ft 336 kts 253°
2026-05-05 15:43 33.51847 -96.03904 21049 ft 333 kts 253°
2026-05-05 15:43 33.51000 -96.06481 20552 ft 332 kts 252°
2026-05-05 15:43 33.50154 -96.09044 20046 ft 330 kts 252°
2026-05-05 15:43 33.49312 -96.11592 19553 ft 328 kts 252°
2026-05-05 15:44 33.48472 -96.14130 19058 ft 327 kts 252°
2026-05-05 15:44 33.47633 -96.16658 18566 ft 326 kts 252°
2026-05-05 15:44 33.46799 -96.19178 18074 ft 325 kts 252°
2026-05-05 15:44 33.45977 -96.21673 17757 ft 317 kts 252°
2026-05-05 15:45 33.45182 -96.24076 17589 ft 305 kts 251°
2026-05-05 15:45 33.44193 -96.26304 17226 ft 304 kts 240°
2026-05-05 15:45 33.42844 -96.28263 16754 ft 305 kts 235°
2026-05-05 15:45 33.41449 -96.30170 16271 ft 304 kts 235°
2026-05-05 15:46 33.40064 -96.32071 15804 ft 303 kts 235°
2026-05-05 15:46 33.38681 -96.33968 15330 ft 302 kts 235°
2026-05-05 15:46 33.37307 -96.35857 14906 ft 300 kts 235°
2026-05-05 15:46 33.35940 -96.37740 14479 ft 299 kts 235°
2026-05-05 15:47 33.34600 -96.39577 14344 ft 287 kts 235°
2026-05-05 15:47 33.33328 -96.41357 14187 ft 275 kts 239°
2026-05-05 15:47 33.32379 -96.43289 13890 ft 265 kts 251°
2026-05-05 15:47 33.31778 -96.45356 13522 ft 263 kts 255°
2026-05-05 15:48 33.31213 -96.47419 12985 ft 259 kts 254°
2026-05-05 15:48 33.30643 -96.49451 12290 ft 254 kts 253°
2026-05-05 15:48 33.30084 -96.51428 11667 ft 249 kts 253°
2026-05-05 15:48 33.29534 -96.53380 10971 ft 247 kts 253°
2026-05-05 15:49 33.28993 -96.55324 10274 ft 246 kts 253°
2026-05-05 15:49 33.28671 -96.57327 9599 ft 246 kts 266°
2026-05-05 15:49 33.28590 -96.59388 9047 ft 250 kts 266°
2026-05-05 15:49 33.28498 -96.61454 8713 ft 248 kts 266°
2026-05-05 15:50 33.28402 -96.63506 8349 ft 247 kts 266°
2026-05-05 15:50 33.28303 -96.65555 8009 ft 246 kts 266°
2026-05-05 15:50 33.28207 -96.67594 7679 ft 245 kts 266°
2026-05-05 15:50 33.28113 -96.69626 7334 ft 245 kts 266°
2026-05-05 15:51 33.28021 -96.71634 7058 ft 243 kts 266°
2026-05-05 15:51 33.27926 -96.73674 7006 ft 244 kts 266°
2026-05-05 15:51 33.27832 -96.75671 7000 ft 236 kts 266°
2026-05-05 15:51 33.27740 -96.77625 6995 ft 236 kts 266°
2026-05-05 15:52 33.27646 -96.79593 6676 ft 238 kts 266°
2026-05-05 15:52 33.27553 -96.81567 6376 ft 237 kts 266°
2026-05-05 15:52 33.27461 -96.83528 6086 ft 235 kts 266°
2026-05-05 15:52 33.27156 -96.85423 5864 ft 229 kts 251°
2026-05-05 15:53 33.26564 -96.87202 5738 ft 232 kts 248°
2026-05-05 15:53 33.25914 -96.88966 5596 ft 232 kts 248°
2026-05-05 15:53 33.25258 -96.90702 5458 ft 231 kts 248°
2026-05-05 15:53 33.24596 -96.92452 5313 ft 230 kts 248°
2026-05-05 15:54 33.23949 -96.94189 5178 ft 229 kts 248°
2026-05-05 15:54 33.23304 -96.95934 5037 ft 229 kts 249°
2026-05-05 15:54 33.22667 -96.97668 4886 ft 228 kts 249°
2026-05-05 15:54 33.22034 -96.99392 4748 ft 226 kts 249°
2026-05-05 15:55 33.21410 -97.01101 4612 ft 228 kts 249°
2026-05-05 15:55 33.20770 -97.02849 4472 ft 226 kts 246°
2026-05-05 15:55 33.19847 -97.04340 4325 ft 231 kts 224°
2026-05-05 15:55 33.18403 -97.05222 4178 ft 240 kts 199°
2026-05-05 15:56 33.16686 -97.05358 4017 ft 248 kts 186°
2026-05-05 15:56 33.14939 -97.05352 3866 ft 260 kts 187°
2026-05-05 15:56 33.13149 -97.05352 3719 ft 252 kts 187°
2026-05-05 15:56 33.11389 -97.05359 3548 ft 247 kts 188°
2026-05-05 15:57 33.09704 -97.05370 3382 ft 250 kts 188°
2026-05-05 15:57 33.07956 -97.05383 3251 ft 251 kts 188°
2026-05-05 15:57 33.06238 -97.05385 3135 ft 238 kts 188°
2026-05-05 15:57 33.04625 -97.05392 3037 ft 228 kts 188°
2026-05-05 15:58 33.03075 -97.05401 2789 ft 217 kts 188°
2026-05-05 15:58 33.01632 -97.05406 2562 ft 199 kts 187°
2026-05-05 15:58 33.00278 -97.05415 2300 ft 189 kts 187°
2026-05-05 15:58 32.99019 -97.05424 2073 ft 172 kts 185°
2026-05-05 15:59 32.97879 -97.05428 1833 ft 155 kts 185°
2026-05-05 15:59 32.96859 -97.05434 1657 ft 146 kts 185°
2026-05-05 15:59 32.95852 -97.05441 1481 ft 147 kts 184°
2026-05-05 15:59 32.94845 -97.05428 1336 ft 144 kts 182°
2026-05-05 16:00 32.93855 -97.05451 1137 ft 143 kts 183°
2026-05-05 16:00 32.92862 -97.05452 890 ft 144 kts 181°
2026-05-05 16:00 32.91874 -97.05447 720 ft 142 kts 186°
2026-05-05 16:00 32.90893 -97.05470 667 ft 146 kts 185°
2026-05-05 16:01 32.89884 -97.05499 1513 ft 147 kts 187°
2026-05-05 16:01 32.88819 -97.05543 2282 ft 161 kts 188°
2026-05-05 16:01 32.87610 -97.05565 2874 ft 185 kts 190°
2026-05-05 16:01 32.86468 -97.06063 3575 ft 173 kts 235°
2026-05-05 16:02 32.86133 -97.07366 4407 ft 168 kts 272°
2026-05-05 16:02 32.86165 -97.08818 4683 ft 189 kts 258°
2026-05-05 16:02 32.85570 -97.10284 4423 ft 206 kts 240°
2026-05-05 16:02 32.84698 -97.11691 3932 ft 214 kts 236°
2026-05-05 16:03 32.83783 -97.13072 3627 ft 211 kts 236°
2026-05-05 16:03 32.82973 -97.14492 3317 ft 204 kts 251°
2026-05-05 16:03 32.82856 -97.16107 3066 ft 198 kts 283°
2026-05-05 16:03 32.83644 -97.17493 2996 ft 213 kts 316°
2026-05-05 16:04 32.85047 -97.18240 3004 ft 230 kts 336°
2026-05-05 16:04 32.86632 -97.18603 3000 ft 236 kts 345°
2026-05-05 16:04 32.88294 -97.18696 3001 ft 242 kts 351°
2026-05-05 16:04 32.89985 -97.18709 3002 ft 243 kts 351°
2026-05-05 16:05 32.91678 -97.18712 2999 ft 243 kts 350°
2026-05-05 16:05 32.93367 -97.18748 3004 ft 243 kts 350°
2026-05-05 16:05 32.95052 -97.18798 3006 ft 242 kts 350°
2026-05-05 16:05 32.96737 -97.18862 3004 ft 242 kts 349°
2026-05-05 16:06 32.98420 -97.18933 3003 ft 241 kts 349°
2026-05-05 16:06 33.00091 -97.19008 2997 ft 239 kts 349°
2026-05-05 16:06 33.01757 -97.19077 3002 ft 241 kts 350°
2026-05-05 16:06 33.03447 -97.18975 3002 ft 245 kts 358°
2026-05-05 16:07 33.05140 -97.18765 2995 ft 244 kts 359°
2026-05-05 16:07 33.06828 -97.18520 3000 ft 245 kts 359°
2026-05-05 16:07 33.08519 -97.18242 3001 ft 246 kts 359°
2026-05-05 16:07 33.10188 -97.17958 3002 ft 246 kts
2026-05-05 16:08 33.11832 -97.17263 2789 ft 261 kts 31°
2026-05-05 16:08 33.13066 -97.15727 2666 ft 253 kts 50°
2026-05-05 16:08 33.14119 -97.14100 2594 ft 245 kts 50°
2026-05-05 16:08 33.15145 -97.12515 2552 ft 237 kts 53°
2026-05-05 16:09 33.15802 -97.10826 2484 ft 214 kts 80°
2026-05-05 16:09 33.15876 -97.09160 2440 ft 192 kts 105°
2026-05-05 16:09 33.15491 -97.07702 2391 ft 180 kts 126°
2026-05-05 16:09 33.14759 -97.06560 2350 ft 167 kts 147°
2026-05-05 16:10 33.13841 -97.05818 2339 ft 155 kts 163°
2026-05-05 16:10 33.12824 -97.05518 2376 ft 151 kts 181°
2026-05-05 16:10 33.11768 -97.05432 2404 ft 152 kts 184°
2026-05-05 16:10 33.10706 -97.05398 2403 ft 151 kts 187°
2026-05-05 16:11 33.09664 -97.05385 2380 ft 150 kts 187°
2026-05-05 16:11 33.06509 -97.05389 2397 ft 152 kts 186°
2026-05-05 16:12 33.05455 -97.05394 2395 ft 152 kts 187°
2026-05-05 16:12 33.03335 -97.05404 2406 ft 152 kts 187°
2026-05-05 16:13 33.00175 -97.05420 2232 ft 150 kts 185°
2026-05-05 16:13 32.99130 -97.05425 2066 ft 149 kts 186°
2026-05-05 16:13 32.98124 -97.05430 1899 ft 144 kts 185°
2026-05-05 16:14 32.96166 -97.05441 1523 ft 142 kts 185°
2026-05-05 16:14 32.94181 -97.05447 1178 ft 142 kts 184°
2026-05-05 16:15 32.92195 -97.05461 778 ft 143 kts 184°
2026-05-05 16:15 32.90345 -97.05472 614 ft 106 kts 180°
2026-05-05 16:16 32.89562 -97.05475 603 ft 7 kts 180°
2026-05-05 16:16 32.89370 -97.05459 603 ft 32 kts 163°
2026-05-05 16:17 32.89058 -97.05292 592 ft 23 kts 148°
2026-05-05 16:17 32.88968 -97.05282 590 ft 11 kts 183°
2026-05-05 16:18 32.88696 -97.05283 590 ft 29 kts 180°
2026-05-05 16:18 32.88606 -97.05218 587 ft 12 kts 74°
2026-05-05 16:18 32.88606 -97.04861 589 ft 36 kts 90°
2026-05-05 16:19 32.88606 -97.04539 591 ft 41 kts 90°
2026-05-05 16:19 32.88605 -97.04213 601 ft 38 kts 90°
2026-05-05 16:19 32.88602 -97.03656 585 ft 26 kts 90°
2026-05-05 16:20 32.88677 -97.03564 584 ft 9 kts 350°
2026-05-05 16:20 32.88782 -97.03640 585 ft 0 kts 321°
2026-05-05 16:21 32.88788 -97.03646 584 ft 0 kts 322°